Weather reports worldwide

Advertisment
Marienberg, Germany (10579): temperature & dewpoint: 19.08.2019 08:00:00 - 25.08.2019 08:00:00 (CEST)Marienberg, Germany (10579): temperature 5cm & temperature -5cm: 19.08.2019 08:00:00 - 25.08.2019 08:00:00 (CEST)Marienberg, Germany (10579): temperature -20cm & temperature -100cm: 19.08.2019 08:00:00 - 25.08.2019 08:00:00 (CEST)Marienberg, Germany (10579): wind speed & gusts: 19.08.2019 08:00:00 - 25.08.2019 08:00:00 (CEST)Marienberg, Germany (10579): wind direction: 19.08.2019 08:00:00 - 25.08.2019 08:00:00 (CEST)Marienberg, Germany (10579): reduced air pressure: 19.08.2019 08:00:00 - 25.08.2019 08:00:00 (CEST)Marienberg, Germany (10579): visibility: 19.08.2019 08:00:00 - 25.08.2019 08:00:00 (CEST)Marienberg, Germany (10579): sunshine duration: 19.08.2019 08:00:00 - 25.08.2019 08:00:00 (CEST)Marienberg, Germany (10579): precipitation: 19.08.2019 08:00:00 - 25.08.2019 08:00:00 (CEST)
Date & Time tt [°C] td [°C] tt 5cm [°C] tt -5cm [°C] tt -20cm [°C] tt -100cm [°C] ff [km/h] ff [kn] fx [km/h] fx [kn] dd ppp [hPa] vv [km] sd [min] rr [mm]
25.08.2019 08:00:00 19,6 15,8 20,0 17,3 19,4 17,0 8 4 18 10 ESE 1019,7 30 60 0,0
25.08.2019 07:00:00 18,0 15,4 16,9 16,7 19,6 17,0 10 5 16 9 SE 1020,0 26 0 0,0
25.08.2019 06:00:00 18,0 15,6 16,6 16,7 19,8 17,0 9 5 21 11 SE 1020,0 22 0 0,0
25.08.2019 05:00:00 17,9 15,7 16,5 16,9 20,0 17,0 6 3 13 7 SE 1019,9 24 0 0,0
25.08.2019 04:00:00 17,8 15,8 15,6 17,2 20,2 17,0 5 3 11 6 SE 1019,9 23 0 0,0
25.08.2019 03:00:00 18,2 16,0 16,6 17,7 20,5 17,0 7 4 21 11 E 1020,0 23 0 0,0
25.08.2019 02:00:00 18,0 15,9 16,7 17,8 20,8 17,0 8 4 15 8 ESE 1020,2 25 0 0,0
25.08.2019 01:00:00 16,8 15,8 14,7 18,2 21,0 17,0 3 1 7 4 ESE 1020,8 24 0 0,0
25.08.2019 00:00:00 16,2 15,0 14,6 19,0 21,3 17,0 2 1 4 2 SE 1021,2 15 0 0,0
24.08.2019 23:00:00 16,8 15,2 15,3 19,8 21,6 17,0 3 1 5 3 E 1021,1 19 0 0,0
24.08.2019 22:00:00 18,1 15,4 16,0 20,8 21,7 17,0 4 2 8 5 E 1020,9 23 0 0,0
24.08.2019 21:00:00 19,0 15,4 17,2 22,1 21,8 17,0 5 3 8 4 ESE 1020,7 18 0 0,0
24.08.2019 20:00:00 21,7 15,0 20,1 24,0 21,8 16,9 7 4 18 10 E 1019,7 38 4 0,0
24.08.2019 19:00:00 23,1 14,7 22,8 26,1 21,5 16,9 6 3 19 11 E 1019,6 45 13 0,0
24.08.2019 18:00:00 23,9 14,7 24,9 28,4 21,1 16,9 8 5 19 10 ESE 1019,6 41 27 0,0
24.08.2019 17:00:00 24,8 14,3 26,9 29,4 20,6 16,9 11 6 23 12 E 1019,6 43 55 0,0
24.08.2019 16:00:00 23,8 14,3 26,5 29,3 20,1 16,9 6 4 17 9 ENE 1020,3 63 52 0,0
24.08.2019 15:00:00 23,4 14,8 26,0 29,3 19,5 16,9 10 5 18 10 ENE 1020,7 31 39 0,0
24.08.2019 14:00:00 23,3 14,7 28,2 28,4 19,0 16,9 7 4 19 10 ENE 1020,8 43 25 0,0
24.08.2019 13:00:00 22,3 14,2 24,8 26,7 18,5 16,9 6 3 14 8 E 1021,3 41 32 0,0
24.08.2019 12:00:00 21,4 14,5 24,6 26,1 18,1 16,9 9 5 23 12 SE 1021,9 34 60 0,0
24.08.2019 11:00:00 21,3 14,8 24,5 23,2 17,8 16,9 10 6 22 12 E 1022,1 39 60 0,0
24.08.2019 10:00:00 20,0 14,9 21,8 19,5 17,8 16,9 12 7 22 12 E 1022,2 32 56 0,0
24.08.2019 09:00:00 17,6 14,3 16,6 16,7 17,9 16,9 3 2 7 4 ESE 1022,8 27 33 0,0
24.08.2019 08:00:00 15,1 13,2 13,9 14,0 18,2 16,9 4 2 7 4 ENE 1023,6 23 49 0,0
24.08.2019 07:00:00 12,9 12,6 10,4 13,1 18,5 16,9 1 1 4 2 E 1024,3 11 0 0,0
24.08.2019 06:00:00 12,2 12,0 9,0 13,3 18,9 16,9 0 0 5 3 N 1024,6 8 0 0,0
24.08.2019 05:00:00 13,1 12,5 10,0 13,7 19,2 16,9 3 2 7 4 ESE 1024,5 23 0 0,0
24.08.2019 04:00:00 12,4 11,6 9,6 14,1 19,6 16,9 3 2 4 2 E 1024,9 22 0 0,0
24.08.2019 03:00:00 11,7 10,7 9,4 14,6 20,0 16,9 0 0 3 2 N 1025,4 19 0 0,0
24.08.2019 02:00:00 13,2 11,0 9,9 15,3 20,3 17,0 3 2 9 5 SE 1025,1 27 0 0,0
24.08.2019 01:00:00 12,3 10,5 9,7 16,0 20,7 17,0 3 1 5 3 ESE 1025,6 25 0 0,0
24.08.2019 00:00:00 12,1 10,4 9,8 17,0 21,1 17,0 2 1 6 3 NNE 1025,9 25 0 0,0
23.08.2019 23:00:00 13,5 11,1 11,1 18,2 21,5 17,0 4 2 8 4 SSE 1025,6 27 0 0,0
23.08.2019 22:00:00 15,6 11,7 12,5 19,7 21,7 17,0 5 3 9 5 SE 1025,3 32 0 0,0
23.08.2019 21:00:00 16,4 11,9 13,7 21,6 21,9 17,0 2 1 8 5 SE 1024,8 40 2 0,0
23.08.2019 20:00:00 20,0 10,5 18,3 24,1 21,8 17,0 6 3 18 10 ENE 1023,5 53 60 0,0
23.08.2019 19:00:00 22,1 10,6 21,8 26,8 21,6 17,0 8 5 20 11 NE 1023,1 45 60 0,0
23.08.2019 18:00:00 22,8 10,8 24,1 29,3 21,1 17,0 11 6 22 12 NNE 1023,2 45 60 0,0
23.08.2019 17:00:00 23,6 11,6 26,0 31,1 20,4 17,0 9 5 21 12 ENE 1023,1 42 60 0,0
23.08.2019 16:00:00 23,3 10,5 27,1 31,9 19,7 17,0 11 6 22 12 NNE 1023,4 41 60 0,0
23.08.2019 15:00:00 23,0 9,9 28,4 31,8 18,9 17,0 8 5 19 11 NE 1023,7 45 60 0,0
23.08.2019 14:00:00 23,0 10,6 27,2 30,4 18,2 17,0 8 4 16 9 E 1024,2 57 60 0,0
23.08.2019 13:00:00 21,8 10,3 26,1 28,8 17,6 17,0 8 5 18 10 NE 1025,0 68 60 0,0
23.08.2019 12:00:00 21,4 10,5 26,5 26,0 17,1 17,0 7 4 16 9 NNE 1025,4 63 60 0,0
23.08.2019 11:00:00 19,8 8,8 24,5 22,9 16,7 17,0 8 4 19 11 NE 1026,1 57 60 0,0
23.08.2019 10:00:00 19,5 9,2 21,7 19,9 16,6 17,0 6 3 15 8 ENE 1026,3 40 60 0,0
23.08.2019 09:00:00 18,7 10,7 19,0 16,2 16,8 17,0 3 2 8 4 ESE 1026,2 39 60 0,0
23.08.2019 08:00:00 13,4 11,7 14,5 12,0 17,0 17,0 0 0 2 1 N 1027,4 34 60 0,0
23.08.2019 07:00:00 10,0 8,9 7,5 11,2 17,3 17,0 0 0 6 4 N 1028,3 24 10 0,0
23.08.2019 06:00:00 8,9 8,3 6,7 11,5 17,7 17,0 6 3 8 4 W 1028,6 23 0 0,0
23.08.2019 05:00:00 9,3 8,6 7,0 12,0 18,0 17,0 0 0 5 3 N 1028,2 22 0 0,0
23.08.2019 04:00:00 11,3 9,5 8,1 12,6 18,4 17,0 4 2 13 7 SSE 1027,5 26 0 0,0
23.08.2019 03:00:00 12,5 10,1 8,4 13,0 18,7 17,0 4 2 8 4 ESE 1027,3 42 0 0,0
23.08.2019 02:00:00 11,0 8,9 8,1 13,6 19,1 17,0 5 3 10 5 S 1028,0 39 0 0,0
23.08.2019 01:00:00 13,4 9,6 10,0 14,3 19,4 17,0 7 4 12 7 SSE 1027,3 44 0 0,0
23.08.2019 00:00:00 10,6 8,8 8,9 15,2 19,8 17,0 4 2 6 4 SW 1028,0 15 0 0,0
22.08.2019 23:00:00 11,6 9,3 9,7 16,2 20,1 17,0 4 2 8 4 S 1027,8 29 0 0,0
22.08.2019 22:00:00 12,6 9,4 10,3 17,5 20,3 17,0 4 2 10 5 SW 1027,4 39 0 0,0
22.08.2019 21:00:00 16,0 9,2 12,7 19,2 20,5 17,0 4 2 10 5 SSE 1026,2 62 3 0,0
22.08.2019 20:00:00 17,7 10,4 15,0 21,6 20,4 17,0 4 2 13 7 S 1025,1 64 60 0,0
22.08.2019 19:00:00 20,4 7,2 19,9 24,1 20,1 17,0 7 4 16 8 ESE 1024,2 68 60 0,0
22.08.2019 18:00:00 21,1 7,3 21,8 26,2 19,7 17,0 6 3 18 10 E 1024,2 58 60 0,0
22.08.2019 17:00:00 21,4 6,6 23,5 27,6 19,1 17,0 8 5 16 9 E 1024,2 75 60 0,0
22.08.2019 16:00:00 21,1 6,3 24,3 28,1 18,5 17,0 9 5 17 9 ENE 1024,6 67 60 0,0
22.08.2019 15:00:00 20,9 7,1 24,5 27,7 17,9 17,0 9 5 22 12 E 1025,1 52 60 0,0
22.08.2019 14:00:00 20,3 6,8 23,5 26,4 17,4 17,0 13 7 27 15 E 1025,5 42 60 0,0
22.08.2019 13:00:00 20,2 7,7 23,9 24,7 17,0 17,0 7 4 22 12 E 1025,8 59 60 0,0
22.08.2019 12:00:00 18,9 7,4 22,5 20,7 16,6 17,0 11 6 26 14 E 1026,7 55 28 0,0
22.08.2019 11:00:00 17,9 7,7 21,1 20,7 16,3 17,0 8 4 21 12 ESE 1027,1 75 50 0,0
22.08.2019 10:00:00 17,6 9,9 19,6 18,4 16,3 17,0 14 7 24 13 ESE 1027,2 53 60 0,0
22.08.2019 09:00:00 16,3 9,2 17,3 15,2 16,4 17,0 8 4 13 7 E 1027,5 55 60 0,0
22.08.2019 08:00:00 13,2 9,1 11,6 11,5 16,6 17,0 3 2 5 3 E 1028,1 40 51 0,0
22.08.2019 07:00:00 8,4 7,7 6,8 10,7 16,9 17,0 3 1 5 3 SW 1029,7 26 0 0,0
22.08.2019 06:00:00 8,3 7,4 6,3 11,1 17,2 17,0 3 1 5 3 SSW 1029,7 29 0 0,0
22.08.2019 05:00:00 8,7 7,2 6,8 11,7 17,5 17,0 2 1 6 3 W 1029,5 37 0 0,0
22.08.2019 04:00:00 9,5 7,6 7,6 12,2 17,9 17,0 3 1 6 4 SSW 1029,4 40 0 0,0
22.08.2019 03:00:00 9,1 7,8 8,0 12,5 18,2 17,0 3 1 4 2 SSE 1029,6 35 0 0,0
22.08.2019 02:00:00 9,0 7,6 7,8 12,8 18,6 17,0 0 0 4 2 N 1030,2 37 0 0,0
22.08.2019 01:00:00 8,9 7,4 7,5 13,3 18,9 17,0 2 1 4 2 S 1030,3 39 0 0,0
22.08.2019 00:00:00 9,3 7,9 7,8 14,0 19,3 17,0 2 1 5 3 SE 1030,2 35 0 0,0
21.08.2019 23:00:00 9,7 8,5 8,3 14,9 19,6 17,0 2 1 4 2 S 1030,2 29 0 0,0
21.08.2019 22:00:00 10,7 8,7 9,3 16,1 19,9 17,0 0 0 4 2 N 1030,0 38 0 0,0
21.08.2019 21:00:00 12,4 9,4 10,3 17,8 20,0 17,0 2 1 7 4 ESE 1029,1 38 0 0,0
21.08.2019 20:00:00 15,8 8,2 13,9 19,9 20,0 17,0 5 3 10 5 NNE 1027,8 58 53 0,0
21.08.2019 19:00:00 17,9 7,2 17,5 22,2 19,8 17,0 5 3 16 9 NE 1027,3 57 60 0,0
21.08.2019 18:00:00 18,6 7,2 19,8 24,5 19,5 17,0 7 4 16 9 ENE 1027,1 54 55 0,0
21.08.2019 17:00:00 18,9 8,2 21,7 25,5 19,1 17,0 6 4 14 8 NE 1027,1 67 51 0,0
21.08.2019 16:00:00 18,2 7,0 21,2 25,7 18,7 17,0 7 4 20 11 N 1027,2 54 50 0,0
21.08.2019 15:00:00 18,3 8,1 23,1 24,9 18,2 17,0 9 5 21 12 WNW 1027,2 46 33 0,0
21.08.2019 14:00:00 17,7 8,6 22,0 25,6 17,7 17,0 7 4 20 11 N 1027,6 46 53 0,0
21.08.2019 13:00:00 16,3 6,8 22,4 24,1 17,3 17,0 7 4 16 9 WNW 1028,2 44 50 0,0
21.08.2019 12:00:00 15,5 10,7 20,1 21,9 17,0 17,0 8 4 18 10 WNW 1028,3 29 49 0,0
21.08.2019 11:00:00 14,2 10,5 19,2 19,9 16,8 17,0 11 6 19 10 W 1028,7 29 52 0,0
21.08.2019 10:00:00 13,8 10,9 18,6 18,2 16,8 17,0 10 5 16 9 W 1028,6 29 60 0,0
21.08.2019 09:00:00 12,6 10,0 15,0 15,2 16,9 17,0 8 4 15 8 SW 1028,7 32 60 0,0
21.08.2019 08:00:00 11,3 10,2 11,7 12,8 17,1 17,0 7 4 18 10 W 1028,7 28 43 0,0
21.08.2019 07:00:00 10,9 10,1 10,0 12,7 17,3 17,0 13 7 19 11 W 1028,2 30 0 0,0
21.08.2019 06:00:00 11,2 10,9 10,4 13,4 17,5 17,0 10 5 14 8 WSW 1027,4 14 0 0,0
21.08.2019 05:00:00 11,5 11,1 11,5 13,9 17,7 17,0 6 4 10 5 W 1027,1 18 0 0,0
21.08.2019 04:00:00 11,5 11,1 11,6 14,0 18,0 17,0 7 4 15 8 W 1026,8 21 0 0,1
21.08.2019 03:00:00 11,7 11,3 11,6 14,2 18,2 17,0 10 5 17 9 W 1026,4 15 0 0,7
21.08.2019 02:00:00 11,8 11,5 11,9 14,5 18,5 17,0 7 4 16 9 WNW 1026,1 9 0 1,5
21.08.2019 01:00:00 12,0 11,8 12,2 14,8 18,7 17,0 9 5 17 9 WNW 1025,9 6 0 1,7
21.08.2019 00:00:00 11,9 11,7 12,2 15,0 19,0 17,0 9 5 25 13 WNW 1025,7 7 0 1,3
20.08.2019 23:00:00 12,0 11,6 12,2 15,4 19,3 17,0 13 7 25 14 WNW 1025,2 8 0 1,7
20.08.2019 22:00:00 12,5 11,9 12,5 16,2 19,5 17,0 14 8 26 14 WNW 1024,6 10 0 1,7
20.08.2019 21:00:00 13,3 11,8 12,8 17,2 19,7 17,0 14 8 23 12 WNW 1023,7 18 0 0,6
20.08.2019 20:00:00 14,4 12,0 13,6 18,3 19,8 17,0 10 5 16 8 WNW 1022,7 15 0 1,0
20.08.2019 19:00:00 16,0 13,4 15,4 19,8 19,9 17,0 6 3 9 5 NW 1021,8 38 0 0,3
20.08.2019 18:00:00 17,5 12,1 16,5 20,5 19,9 17,0 7 4 16 9 NNE 1021,3 40 0 0,0
20.08.2019 17:00:00 18,8 10,9 19,1 21,5 19,8 17,0 7 4 21 11 N 1020,6 57 0 0,0
20.08.2019 16:00:00 19,9 9,4 20,8 22,6 19,6 17,0 10 5 19 10 NNE 1020,2 62 0 0,0
20.08.2019 15:00:00 20,1 9,2 21,0 23,6 19,2 17,0 9 5 17 9 NNE 1020,1 51 0 0,0
20.08.2019 14:00:00 20,5 8,4 22,3 25,0 18,8 17,0 5 3 18 10 NNE 1020,0 68 2 0,0
20.08.2019 13:00:00 21,4 10,8 25,8 24,9 18,4 17,0 8 4 14 8 N 1020,0 43 8 0,0
20.08.2019 12:00:00 20,5 8,8 23,6 24,8 18,0 16,9 5 3 16 9 NE 1020,4 60 42 0,0
20.08.2019 11:00:00 19,9 10,2 22,8 22,6 17,8 16,9 8 4 15 8 NNE 1020,4 64 42 0,0
20.08.2019 10:00:00 19,3 11,8 22,2 19,9 17,7 16,9 4 2 9 5 NE 1020,3 64 20 0,0
20.08.2019 09:00:00 16,9 13,3 17,0 17,4 17,8 16,9 4 2 6 3 WSW 1021,0 37 6 0,0
20.08.2019 08:00:00 15,0 13,9 14,9 15,4 17,9 16,9 0 0 7 4 N 1020,8 32 1 0,0
20.08.2019 07:00:00 13,0 12,7 12,4 14,6 18,1 16,9 4 2 7 4 WSW 1021,4 15 0 0,0
20.08.2019 06:00:00 13,0 12,7 11,9 14,7 18,3 16,9 3 2 6 4 WSW 1021,2 10 0 0,0
20.08.2019 05:00:00 13,4 13,2 12,3 14,9 18,5 16,9 3 1 8 5 WSW 1020,7 8 0 0,0
20.08.2019 04:00:00 13,2 12,9 12,2 15,0 18,7 16,9 4 2 6 3 WSW 1021,0 10 0 0,0
20.08.2019 03:00:00 13,5 13,4 12,1 15,2 19,0 16,9 0 0 6 3 N 1020,5 8 0 0,0
20.08.2019 02:00:00 12,8 12,6 12,0 15,3 19,2 16,9 0 0 4 2 N 1021,0 10 0 0,0
20.08.2019 01:00:00 12,6 12,2 11,2 15,7 19,5 16,9 3 2 7 4 SW 1021,0 14 0 0,0
20.08.2019 00:00:00 13,4 12,9 11,8 16,5 19,7 16,9 0 0 8 4 N 1020,4 10 0 0,0
19.08.2019 23:00:00 15,2 14,1 13,3 17,2 20,0 16,9 4 2 11 6 SSE 1019,7 24 0 0,0
19.08.2019 22:00:00 15,3 14,2 13,5 18,1 20,1 16,9 4 2 9 5 SSE 1019,4 33 0 0,0
19.08.2019 21:00:00 15,6 13,5 13,8 19,5 20,2 16,9 2 1 5 3 SW 1018,9 53 0 0,0
19.08.2019 20:00:00 18,6 12,2 17,4 21,3 20,1 16,9 4 2 9 5 ENE 1017,7 61 43 0,0
19.08.2019 19:00:00 19,5 12,4 19,6 22,5 19,9 16,9 4 2 10 6 NNE 1016,9 65 9 0,0
19.08.2019 18:00:00 20,3 11,3 21,2 24,2 19,6 16,9 3 2 12 7 SW 1016,6 66 41 0,0
19.08.2019 17:00:00 20,1 11,5 22,3 25,2 19,2 16,9 5 3 12 7 W 1016,8 65 59 0,0
19.08.2019 16:00:00 19,3 12,4 23,0 24,9 18,8 16,9 5 3 14 8 WNW 1017,1 48 42 0,0
19.08.2019 15:00:00 18,9 12,4 22,4 24,8 18,6 16,9 6 4 19 10 WNW 1017,1 51 36 0,0
19.08.2019 14:00:00 16,9 13,5 20,3 19,6 18,6 16,9 4 2 8 5 WSW 1017,3 48 2 0,0
19.08.2019 13:00:00 15,3 13,6 15,6 18,5 18,6 16,9 4 2 10 5 NW 1017,5 26 0 0,2
19.08.2019 12:00:00 15,4 13,8 15,7 18,1 18,6 16,9 5 3 16 9 NW 1017,0 5 0 0,0
19.08.2019 11:00:00 15,4 13,6 16,3 17,8 18,6 16,9 7 4 19 11 NNW 1016,4 32 0 0,0
19.08.2019 10:00:00 16,6 15,2 16,9 17,7 18,7 16,9 8 5 15 8 W 1015,4 54 0 0,0
19.08.2019 09:00:00 16,5 15,1 16,7 17,3 18,9 17,0 8 5 18 10 W 1014,7 62 0 0,0
19.08.2019 08:00:00 16,6 14,6 16,0 16,7 19,0 17,0 10 6 23 12 SW 1014,5 72 0 0,0

tt = temperature
td = dewpoint
tt 5cm = temperature 5cm
tt -5cm = temperature -5cm
tt -20cm = temperature -20cm
tt -100cm = temperature -100cm
ff = wind speed
fx = gusts
dd = wind direction
ppp = reduced air pressure
vv = visibility
sd = sunshine duration
rr = precipitation

Next stations